Regional Weather Roundup
Issued by NWS Upton, NY

Current Version | Previous Version | Text Only | Print | Product List | Glossary On
Versions: 1 2 3 4 5 6 7 8 9 10 11 12 13 14 15 16 17 18 19 20 21 22 23 24 25 26 27 28 29 30 31 32 33 34 35 36 37 38 39 40 41 42 43 44 45 46 47 48 49 50
000 ASUS41 KOKX 272208 RWROKX REGIONAL WEATHER ROUNDUP NATIONAL WEATHER SERVICE NEW YORK NY 600 PM EDT MON JUL 27 2015 NOTE: "FAIR" INDICATES FEW OR NO CLOUDS BELOW 12,000 FEET WITH NO SIGNIFICANT WEATHER AND/OR OBSTRUCTIONS TO VISIBILITY. NYZ071-072-176-178-NJZ106-104-272300- NEW YORK CITY METRO AREA CITY SKY/WX TMP DP RH WIND PRES REMARKS CENTRAL PARK FAIR 81 67 62 MISG 30.01S LAGUARDIA APRT PTSUNNY 83 65 54 S18 29.97F KENNEDY INTL FAIR 82 67 60 S13 30.00F NEWARK/LIBERTY PTSUNNY 83 70 64 S9G17 29.97F BRNX BOT. GARD N/A 79 66 65 SE9 30.00R TETERBORO FAIR 82 66 58 S9 29.96S $$ NYZ177-179-078>081-272300- LONG ISLAND NEW YORK CITY SKY/WX TMP DP RH WIND PRES REMARKS FARMINGDALE FAIR 80 67 64 S12 30.00S ISLIP FAIR 80 68 66 S15 29.98F SHIRLEY FAIR 80 69 69 S12 30.01F WESTHAMPTON FAIR 80 70 71 S12 30.02F MONTAUK POINT N/A 80 71 74 S5 30.03S $$ NYZ052-065-067-272300- HUDSON VALLEY CITY SKY/WX TMP DP RH WIND PRES REMARKS WHITE PLAINS FAIR 79 68 69 SE8 29.99F NEWBURGH PTSUNNY 77 72 83 S16 29.99F MONTGOMERY CLOUDY 80 70 71 S5 29.97S POUGHKEEPSIE FAIR 84 68 58 S7 29.96S ALBANY FAIR 88 63 43 CALM 29.95R $$ NJZ001-105-106-008-010-013-015-019>022-104-272300- NEW JERSEY CITY SKY/WX TMP DP RH WIND PRES REMARKS NEWARK/LIBERTY PTSUNNY 83 70 64 S9G17 29.97F TETERBORO FAIR 82 66 58 S9 29.96S CALDWELL PTSUNNY 81 68 64 SE10 29.97S MORRISTOWN PTSUNNY 86 70 58 S9G16 29.97S HX 90 SOMERVILLE FAIR 79 67 66 SE8 29.95S SUSSEX FAIR 84 66 54 VRB3 29.97F ANDOVER N/A 82 69 64 W5 29.98F TRENTON CLOUDY 85 68 56 SW12 29.96S MILLVILLE PTSUNNY 81 71 71 S7 29.98F ATLANTIC CITY FAIR 79 69 71 S12 29.99F WRIGHTSTOWN LGT RAIN 77 73 87 SE10 29.95S TOMS RIVER FAIR 79 70 73 SE6 29.99S BELMAR FAIR 77 66 69 SE7 29.99F $$ PAZ047>061-062-071-272300- EASTERN PENNSYLVANIA CITY SKY/WX TMP DP RH WIND PRES REMARKS PHILADELPHIA FAIR 84 68 58 S9 29.97F ALLENTOWN FAIR 84 69 60 CALM 29.97F SCRANTON FAIR 85 64 49 NW8 29.99S $$ CTZ002-004>006-009-010-012-RIZ004-006-007-MAZ004-011-015-272300- SOUTHERN NEW ENGLAND IN CT CITY SKY/WX TMP DP RH WIND PRES REMARKS BRADLEY INTL PTSUNNY 83 66 56 S13 29.96S HARTFORD FAIR 83 66 56 SW10 29.97F DANBURY FAIR 81 66 60 SE10 30.00S WTRBRY/OXFORD PTSUNNY 79 66 65 S9 30.04R BRIDGEPORT FAIR 78 70 76 E6 29.99S MERIDEN FAIR 82 65 56 SW12 29.99S NEW HAVEN FAIR 81 68 64 S7 29.99F CHESTER FAIR 81 70 69 S7 30.02S GROTON FAIR 76 69 79 S9 30.00F WILLIMANTIC FAIR 81 65 58 S12 30.00S IN RI CITY SKY/WX TMP DP RH WIND PRES REMARKS PROVIDENCE PTSUNNY 78 68 71 S10 30.00F BLOCK ISLAND FAIR 75 72 88 S9 30.03S WESTERLY FAIR 77 68 73 S7 30.02F IN MA CITY SKY/WX TMP DP RH WIND PRES REMARKS BOSTON PTSUNNY 78 69 73 SW14 29.97S WORCESTER FAIR 75 66 73 S9 30.03S WESTFIELD LGT RAIN 80 67 64 VRB3 29.97S PROVINCETOWN FAIR 73 63 68 S12 30.00F NANTUCKET FAIR 72 67 84 S10 30.03S $$ ANZ330-335-338-340-345-350-353-355-272300- COASTAL MARINE OBSERVATIONS STATION/POSITION TIME SKY/WX TEMP WIND PRES VSBY WAVE AIR SEA DIR/SP/G HT/PER (UTC) (F) (DEG/KT/KT) (MB) (MI) (FT/S) NY HARB ENTRANCE 2150 76 76 180/ 12/ 14 1015.1 2/11 4S FIRE IS NOT AVBL 20S FIRE ISLAND 2150 76 73 180/ 8/ 8 1015.7 2/11 GREAT SOUTH BAY 2100 76 80 190/ 12/ 14 N/A 23SW MTP 2150 75 74 190/ 8/ 10 1016.0 2/11 HUDSON CANYON NOT AVBL KINGS POINT 2100 78 74 190/ 12/ 13 1014.7 CENTRAL LI SOUND NOT AVBL EASTERN LI SOUND 2100 77 70 130/ 6/ 8 N/A ROBBINS REEF 2100 75 160/ 20/ 22 1014.2 $$ >>>>>>>>>>>>>>>>>>>>>>>>>>>> KEY <<<<<<<<<<<<<<<<<<<<<<<<<<< > < > SKY/WX - SKY CONDITION/PRESENT WEATHER < > TMP - TEMPERATURE IN FAHRENHEIT < > DP - DEWPOINT IN FAHRENHEIT < > RH - RELATIVE HUMIDITY IN PERCENT < > WIND - DIRECTION AND SPEED IN MPH < > PRES - MEAN SEA LEVEL PRESSURE IN INCHES OF HG < > WCI - WIND CHILL INDEX < > VSB - VISIBILITY IN MILES < > HX - HEAT INDEX < > TC - TEMPERATURE IN CELSIUS < > VRB - VARIABLE WIND DIRECTION < > < >>>>>>>>>>>>>>>>>>>>>>>>>>>> KEY <<<<<<<<<<<<<<<<<<<<<<<<<<<

USA.gov is the U.S. government's official web portal to all federal, state and local government web resources and services.